Montgomery, NY

7:22 PM EDT on July 25, 2017 (GMT -0400)
Orange County

Weather History for KMGJ - September, 2012

Change the Weather History Date:

Friday, September 7, 2012

  Actual Average (KSWF) Record (KSWF)
Temperature  
Mean Temperature 74 °F -  
Max Temperature 86 °F 74 °F 91 °F (1983)
Min Temperature 62 °F 55 °F 34 °F (1984)
Cooling Degree Days 9    
Growing Degree Days 24 (Base 50)    
Moisture  
Dew Point 66 °F    
Average Humidity 82    
Maximum Humidity 100    
Minimum Humidity 55    
Precipitation  
Precipitation 0.00 in - - ()
Sea Level Pressure  
Sea Level Pressure 29.88 in    
Wind  
Wind Speed 1 mph (SSW)    
Max Wind Speed 7 mph    
Max Gust Speed -    
Visibility 8 miles    
Events      
Averages and records for this station are not official NWS values.
T = Trace of Precipitation, MM = Missing Value Source: NWS Daily Summary

Daily Weather History Graph

Daily Weather History Graph

Search for Another Location

Airport or City:

Trip Planner

Search our weather history database for the weather conditions in past years. The results will help you decide how hot, cold, wet, or windy it might be!

Date:

Astronomy

Sep. 07, 2012 Rise Set
Actual Time 6:29 AM EDT 7:19 PM EDT
Civil Twilight 6:01 AM EDT 7:47 PM EDT
Nautical Twilight 5:28 AM EDT 8:20 PM EDT
Astronomical Twilight 4:53 AM EDT 8:55 PM EDT
Moon 11:07 PM EDT (9/7) 1:24 PM EDT (9/7)
Length of Visible Light 13h 45m
Length of Day
12h 49m
Waning Gibbous, 58% of the Moon is Illuminated
Sep 7
Waning Gibbous
Sep 8
Last Quarter
Sep 15
New
Sep 22
First Quarter
Sep 29
Full

Hourly Weather History & Observations

Time (EDT) Temp. Heat Index Dew Point Humidity Pressure Visibility Wind Dir Wind Speed Gust Speed Precip Events Conditions
12:54 AM 68.0 °F - 66.0 °F 93% 29.90 in 10.0 mi Calm Calm - N/A   Clear
1:54 AM 69.1 °F - 66.9 °F 93% 29.88 in 10.0 mi Calm Calm - N/A   Clear
2:54 AM 66.9 °F - 66.0 °F 97% 29.86 in 10.0 mi Calm Calm - N/A   Clear
3:54 AM 66.9 °F - 66.0 °F 97% 29.88 in 10.0 mi SW 5.8 mph - N/A   Partly Cloudy
4:54 AM 64.9 °F - 64.0 °F 97% 29.89 in 10.0 mi East 3.5 mph - N/A   Clear
5:52 AM 64.4 °F - 62.6 °F 94% 29.88 in 2.0 mi Calm Calm - N/A   Partly Cloudy
5:54 AM 64.0 °F - 62.1 °F 93% 29.87 in 1.2 mi Calm Calm - N/A   Partly Cloudy
6:05 AM 62.6 °F - 62.6 °F 100% 29.87 in 3.0 mi Calm Calm - N/A   Partly Cloudy
6:54 AM 63.0 °F - 62.1 °F 97% 29.91 in 6.0 mi Calm Calm - 0.00 in   Clear
7:54 AM 66.9 °F - 66.0 °F 97% 29.93 in 7.0 mi Calm Calm - N/A   Clear
8:54 AM 73.9 °F - 66.0 °F 76% 29.94 in 10.0 mi NNW 4.6 mph - N/A   Clear
9:54 AM 77.0 °F - 68.0 °F 74% 29.94 in 10.0 mi Calm Calm - N/A   Clear
10:54 AM 79.0 °F - 68.0 °F 69% 29.92 in 10.0 mi Variable 3.5 mph - N/A   Clear
11:54 AM 81.0 °F 83.8 °F 68.0 °F 65% 29.92 in 10.0 mi NNE 4.6 mph - N/A   Partly Cloudy
12:54 PM 82.9 °F 85.4 °F 66.9 °F 58% 29.91 in 10.0 mi Calm Calm - N/A   Partly Cloudy
1:54 PM 84.0 °F 86.5 °F 66.9 °F 56% 29.89 in 10.0 mi SW 4.6 mph - N/A   Clear
2:54 PM 86.0 °F 89.4 °F 68.0 °F 55% 29.88 in 10.0 mi South 6.9 mph - N/A   Partly Cloudy
3:54 PM 84.9 °F 87.6 °F 66.9 °F 55% 29.86 in 10.0 mi South 5.8 mph - N/A   Mostly Cloudy
5:54 PM 82.9 °F 85.0 °F 66.0 °F 56% 29.86 in 10.0 mi SSW 3.5 mph - N/A   Clear
6:54 PM 79.0 °F - 69.1 °F 72% 29.86 in 10.0 mi Calm Calm - N/A   Overcast
7:54 PM 73.9 °F - 70.0 °F 87% 29.86 in 10.0 mi Calm Calm - N/A   Clear
8:54 PM 71.1 °F - 68.0 °F 90% 29.87 in 10.0 mi Calm Calm - N/A   Clear
9:54 PM 69.1 °F - 66.9 °F 93% 29.86 in 8.0 mi Calm Calm - N/A   Clear
10:54 PM 68.0 °F - 66.0 °F 93% 29.84 in 7.0 mi Calm Calm - N/A   Clear
11:54 PM 68.0 °F - 66.0 °F 93% 29.83 in 6.0 mi Calm Calm - N/A   Clear